Regional Weather Roundup
Issued by NWS

Home | Current Version | Previous Version | Text Only | Print | Product List | Glossary Off
Versions: 1 2 3 4 5 6 7 8 9 10 11 12 13 14 15 16 17 18 19 20 21 22 23 24 25 26 27 28 29 30 31 32 33 34 35 36 37 38 39 40 41 42 43 44 45 46 47 48 49 50

000
ASUS44 KMEG 211200
RWRTN
TENNESSEE HOURLY STATE WEATHER ROUNDUP
NATIONAL WEATHER SERVICE MEMPHIS TN
700 AM CDT SUN SEP 21 2014

TNZ002-004-019-021-049-052-054-088>092-211300-
WEST TENNESSEE

CITY           SKY/WX    TMP DP  RH WIND       PRES   REMARKS
MEMPHIS INTL   PTCLDY    72  66  81 SW5       30.00S
NWS MEMPHIS      N/A     67 N/A N/A MISG        N/A
JACKSON        CLEAR     67  64  90 SW6       30.00R
DYERSBURG      CLEAR     70  59  68 W7        29.99S
UNION CITY     CLEAR     68  66  94 SW6       29.95F
PARIS          CLEAR     66  64  94 SW8       29.98S
SAVANNAH       CLEAR     64  64 100 SE3       30.02R
$$

TNZ008-025-027-028-033-062-065-066-211300-
NORTH MIDDLE TENNESSEE

CITY           SKY/WX    TMP DP  RH WIND       PRES   REMARKS
NASHVILLE      MOCLDY    68  64  87 CALM      29.99R
CLARKSVILLE    PTCLDY    71  66  84 SW7       29.95R
COOKEVILLE     PTCLDY    63  61  94 SW3       30.02R
CROSSVILLE     CLEAR     64  58  80 SW5       30.05R
$$

TNZ061-075-076-078-094-096-097-211300-
SOUTH MIDDLE TENNESSEE

CITY           SKY/WX    TMP DP  RH WIND       PRES   REMARKS
SHELBYVILLE    CLEAR     64  63  94 CALM      30.03R
$$

TNZ017-018-042-046-047-211300-
NORTHEAST TENNESSEE

CITY           SKY/WX    TMP DP  RH WIND       PRES   REMARKS
TRI CITIES     MOCLDY    57  54  89 CALM      30.02S
ELIZABETHTON   PTSUNNY   55  54  94 E3        30.04S
$$

TNZ012-013-036-069-073-074-211300-
CENTRAL EAST TENNESSEE

CITY           SKY/WX    TMP DP  RH WIND       PRES   REMARKS
KNOXVILLE      PTCLDY    64  61  90 SW6       30.01R
OAK RIDGE      CLEAR     64  62  93 SW3       30.02S
GATLINBURG     SUNNY     57  55  94 CALM      30.01S
$$

TNZ083-085-099-211300-
SOUTHEAST TENNESSEE

CITY           SKY/WX    TMP DP  RH WIND       PRES   REMARKS
CHATTANOOGA    CLEAR     63  59  87 CALM      30.03R
$$

SKY/WX REPORTED AS FAIR MEANS FEW OR NO CLOUDS BELOW
12 THOUSAND FEET.



USA.gov is the U.S. government's official web portal to all federal, state and local government web resources and services.